ORBCOMM FM05 [+]

Last updated on Sat May 13 2023 00:03:01 GMT+0000 (Coordinated Universal Time)

1 25117U 97084F 23132.11744397 .00002564 00000+0 83518-3 0 9995 2 25117 45.0162 74.2901 0004584 322.8171 37.2361 14.40944725329808
UTC large
Height (km)
Speed (km/s)
/
Latitude / Longitude
Inclination (degrees)
Orbital Period (minutes)
Azimuth
Elevation
Range (km)
Doppler Factor

Next 0 passes for location: London (51.5072 / 0.1276)

Sorry there are no passes over London.
ORBCOMM FM05 [+]